Flag for Germany Weather past 2 weeks in Warstein, North Rhine-Westphalia, Germany

Now
73 °F

Sunny.


Feels Like: 75 °F
Forecast: 69 / 93 °F
Wind: 2 mph from North

Location: Paderborn / Lippstadt

Current Time: Jul 3, 2015 at 10:56:01 PM

Latest Report: Jul 3, 2015 at 10:20 PM


Visibility: 10 mi

Pressure: 30.21 "Hg

Humidity: 74%

Dew point: 64 °F

Location of WarsteinLocation

Historic Weather in Warstein — Graph

°F

Warstein temperature yesterday

Maximum temperature yesterday: 93 °F (at 3:20 PM)
Minimum temperature yesterday: 70 °F (at 1:50 AM)
Average temperature yesterday: 82 °F

Past Weeks' High & Low Weather Summary

 TemperatureHumidityPressure
High93 °F (Jul 2, 3:20 PM)100% (Jun 19, 9:20 AM)30.27 "Hg (Jun 19, 9:20 AM)
Low46 °F (Jun 19, 7:20 AM)24% (Jul 2, 3:20 PM)29.68 "Hg (Jun 22, 8:20 PM)
Average62 °F66%30.08 "Hg
* Reported Jun 18 9:20 PM — Jul 3 9:20 PM, Warstein, Weather by CustomWeather, © 2015

Note: Actual official high and low records may vary slightly from our data, if they occured in-between our weather recording intervals... More about our weather records

Advertising

Warstein weather history for previous 24 hours

 ConditionsComfort  
Time TempWeatherWind HumidityBarometerVisibility
9:20 PM
Fri, Jul 3
79 °FSunny.8 mph61%30.21 "Hg10 mi
8:50 PM81 °FSunny.9 mph54%30.21 "Hg10 mi
8:20 PM82 °FPassing clouds.6 mph55%30.21 "HgN/A
7:50 PM84 °FSunny.6 mph48%30.21 "Hg10 mi
7:20 PM84 °FPassing clouds.7 mph48%30.21 "HgN/A
6:50 PM86 °FSunny.6 mph46%30.21 "Hg10 mi
6:20 PM86 °FPassing clouds.8 mph43%30.21 "HgN/A
5:50 PM88 °FSunny.7 mph40%30.21 "Hg10 mi
5:20 PM86 °FSunny.7 mph43%30.21 "Hg10 mi
4:50 PM88 °FSunny.7 mph43%30.21 "Hg10 mi
4:20 PM86 °FSunny.9 mph43%30.21 "Hg10 mi
3:50 PM88 °FPassing clouds.7 mph40%30.21 "HgN/A
3:20 PM86 °FWarm.7 mph46%30.21 "HgN/A
2:50 PM86 °FSunny.8 mph46%30.21 "Hg10 mi
2:20 PM86 °FSunny.5 mph46%30.24 "Hg10 mi
1:50 PM84 °FSunny.6 mph48%30.24 "Hg10 mi
1:20 PM82 °FSunny.6 mph48%30.24 "Hg10 mi
12:50 PM81 °FSunny.5 mph51%30.24 "Hg10 mi
12:20 PM81 °FSunny.6 mph51%30.27 "Hg10 mi
11:50 AM77 °FPassing clouds.9 mph57%30.27 "HgN/A
11:20 AM75 °FPassing clouds.8 mph61%30.27 "HgN/A
10:50 AM75 °FPassing clouds.8 mph65%30.27 "HgN/A
10:20 AM73 °FSunny.6 mph65%30.27 "Hg10 mi
9:50 AM72 °FSunny.5 mph69%30.27 "Hg10 mi
9:20 AM70 °FSunny.6 mph78%30.24 "Hg10 mi
8:50 AM70 °FPassing clouds.3 mph78%30.27 "HgN/A
8:20 AM70 °FPassing clouds.3 mph78%30.27 "HgN/A
7:50 AM68 °FPassing clouds.3 mph83%30.27 "HgN/A
7:20 AM66 °FSunny.2 mph88%30.24 "Hg10 mi
6:50 AM66 °FThundershowers. Sunny.1 mph88%30.24 "HgN/A
6:20 AM66 °FThunderstorms. Scattered clouds.5 mph88%30.24 "HgN/A
5:50 AM68 °FThundershowers. Clear.2 mph83%30.21 "HgN/A
5:20 AM68 °FClear.1 mph83%30.21 "Hg10 mi
4:50 AM68 °FClear.2 mph83%30.21 "Hg10 mi
4:20 AM70 °FPassing clouds.3 mph78%30.21 "HgN/A
3:50 AM72 °FPassing clouds.3 mph73%30.18 "HgN/A
3:20 AM73 °FClear.8 mph69%30.18 "Hg10 mi
2:50 AM77 °FThundershowers. Clear.5 mph51%30.18 "HgN/A
1:50 AM77 °FThundershowers. Clear.7 mph47%30.12 "HgN/A
1:20 AM79 °FClear.8 mph45%30.15 "Hg10 mi
12:50 AM79 °FClear.12 mph45%30.12 "Hg10 mi
12:20 AM81 °FClear.15 mph42%30.12 "Hg10 mi
11:50 PM
Thu, Jul 2
81 °FPassing clouds.9 mph42%30.12 "HgN/A
11:20 PM81 °FClear.10 mph42%30.12 "Hg10 mi
10:50 PM81 °FClear.5 mph42%30.12 "Hg10 mi
10:20 PM81 °FSunny.6 mph45%30.12 "Hg10 mi
Weather by CustomWeather, © 2015

See weather overviewHow to use our weather pages